Temp
76 77 78 78 78 78 77 77 77 78 78 78 78 77 78 78 79 79 79 79 79 78 78 78 78 78 80 78 78 78 77 77 77 77 75 76 76 75 79 77 76 75
77 78 79 78 78 79 78 79 78 79 78 78 78 78 78 79 79 80 79 79 79 79 78 79 78 78 78 78 78 77 77 77 77 80 77 76 76 76 77 76 77 76
77 77 78 78 79 79 80 80 79 79 79 80 79 79 79 80 80 79 79 80 79 80 78 79 78 78 79 78 78 78 78 77 77 78 77 77 77 76 76 78 76 77
78 78 79 80 80 80 80 80 79 79 80 79 80 81 81 83 80 80 79 81 79 79 79 79 79 79 79 78 78 78 78 77 78 77 77 77 77 77 77 76 76 77
79 78 78 79 80 80 80 80 80 79 80 80 81 81 80 80 80 80 79 79 79 79 79 79 79 79 79 78 78 77 78 78 77 76 76 76 77 77 78 77 76 76
78 78 78 79 78 79 80 80 80 80 81 81 81 81 82 81 80 80 80 80 80 80 80 80 80 80 80 78 78 78 78 78 78 76 76 76 77 78 80 78 76 75
79 78 78 79 79 79 79 80 80 81 81 82 81 80 81 81 80 81 80 81 81 80 81 80 79 79 79 79 78 78 77 77 78 77 77 77 77 77 79 78 77 76
79 79 79 79 80 79 79 79 79 80 81 81 81 81 81 82 81 82 81 81 81 80 80 80 79 79 80 79 78 78 78 80 79 77 76 77 76 76 77 78 77 75
80 80 79 79 80 80 80 81 81 80 81 81 81 82 81 82 81 82 80 80 81 80 79 79 79 79 79 79 79 78 78 79 80 78 77 77 77 77 77 77 76 76
78 80 81 81 81 81 81 82 83 82 81 81 82 82 81 81 82 82 81 79 80 80 79 78 78 79 79 79 79 79 79 78 78 78 78 78 78 78 78 78 78 76
73 79 81 81 82 82 82 82 82 84 82 82 82 82 83 81 80 81 81 80 81 80 80 79 79 79 79 80 80 80 80 80 79 78 78 78 79 79 80 78 78 78
71 71 76 81 80 82 82 81 80 81 82 83 83 82 82 83 81 81 81 80 81 81 81 80 80 79 79 80 80 80 80 80 80 79 79 79 79 79 79 79 79 79
72 72 72 75 76 78 78 78 78 79 80 81 82 84 83 83 83 82 81 81 81 81 81 81 80 80 79 79 80 81 80 80 80 80 79 79 79 80 80 81 80 80
72 72 73 75 76 76 76 77 78 77 76 77 78 80 83 84 83 83 82 82 82 82 82 82 80 79 79 79 80 81 80 80 80 80 80 80 80 79 81 81 81 81
73 74 74 74 76 75 74 74 75 75 75 75 75 77 80 78 80 82 82 81 82 81 82 82 82 80 80 80 79 79 80 80 79 80 80 80 80 80 80 81 82 83
73 73 73 73 73 73 73 74 75 74 76 76 76 77 76 76 76 78 81 81 80 80 81 82 82 82 82 77 78 80 79 81 80 79 79 79 79 79 80 81 82 83
72 72 72 72 72 72 72 73 72 73 73 72 73 74 75 76 77 77 78 79 81 81 80 81 83 84 77 70 71 74 81 79 79 78 77 78 78 78 78 80 82 82
72 72 72 72 72 72 72 72 72 72 71 72 73 73 73 75 76 76 76 78 80 80 81 82 82 80 72 69 70 70 75 81 81 80 79 78 79 79 79 79 80 81
71 72 72 72 72 73 73 72 72 72 73 73 73 74 73 73 73 75 75 75 77 76 79 82 82 77 70 68 68 68 68 76 82 81 80 80 79 79 79 79 78 78
71 71 71 71 71 72 72 72 72 72 73 74 74 73 72 72 74 74 74 74 75 75 74 76 77 78 70 66 65 65 66 69 80 82 81 81 80 80 81 80 79 79
71 71 71 71 71 72 72 72 72 71 72 73 73 73 72 72 73 73 74 74 75 76 76 78 80 70 67 66 64 63 64 66 76 82 83 81 81 81 80 80 80 81
71 70 70 71 71 71 71 71 71 71 71 72 72 72 73 73 73 74 74 74 75 75 74 74 79 69 66 66 62 62 63 69 71 74 78 80 80 80 80 80 80 80
71 71 71 71 71 70 70 70 70 70 70 70 69 70 70 72 72 73 74 74 75 75 74 73 75 71 64 64 63 61 64 70 70 72 73 75 78 79 79 80 81 81
70 71 71 71 70 70 70 70 70 70 69 70 69 69 69 71 72 73 73 74 75 75 76 76 76 73 64 62 62 61 67 71 70 71 72 73 75 78 79 79 80 83
70 70 70 71 71 71 71 70 70 70 71 70 69 69 69 69 72 71 72 73 75 76 78 77 76 75 64 59 59 59 64 72 71 71 72 72 73 75 77 78 79 81
70 70 70 70 69 70 70 69 70 71 69 70 69 69 69 68 69 71 71 72 74 75 76 76 76 76 72 62 58 55 58 72 72 72 72 73 73 74 74 75 77 78
MSLP
1018.60 1018.72 1018.92 1019.08 1019.20 1019.24 1019.52 1019.80 1019.88 1020.04 1020.12 1020.20 1020.44 1020.48 1020.48 1020.40 1020.32 1020.44 1020.52 1020.56 1020.68 1020.80 1020.84 1020.84 1020.80 1020.92 1020.92 1020.92 1020.96 1021.04 1021.20 1021.28 1021.28 1021.20 1021.36 1021.44 1021.56 1021.64 1021.72 1021.64 1021.60 1021.72
1018.64 1018.60 1018.68 1018.84 1019.04 1019.04 1019.16 1019.20 1019.52 1019.68 1019.92 1019.96 1019.96 1020.08 1020.08 1020.16 1020.20 1020.24 1020.40 1020.52 1020.52 1020.60 1020.60 1020.72 1020.72 1020.76 1020.84 1020.96 1021.00 1021.12 1021.28 1021.32 1021.44 1021.12 1021.40 1021.48 1021.52 1021.56 1021.64 1021.60 1021.64 1021.56
1018.64 1018.72 1018.76 1018.96 1019.08 1019.08 1019.04 1019.04 1019.16 1019.36 1019.60 1019.68 1019.68 1019.80 1019.92 1019.88 1020.04 1020.08 1020.16 1020.28 1020.44 1020.44 1020.52 1020.56 1020.64 1020.64 1020.72 1020.80 1020.88 1021.04 1021.20 1021.36 1021.44 1021.24 1021.36 1021.52 1021.40 1021.56 1021.48 1021.48 1021.60 1021.60
1018.60 1018.64 1018.68 1018.72 1018.76 1018.92 1018.84 1019.04 1019.16 1019.24 1019.32 1019.60 1019.64 1019.52 1019.56 1019.64 1019.76 1019.96 1020.04 1020.08 1020.24 1020.36 1020.36 1020.44 1020.52 1020.56 1020.64 1020.72 1020.84 1021.04 1021.04 1021.12 1021.12 1021.16 1021.40 1021.44 1021.44 1021.40 1021.44 1021.40 1021.48 1021.52
1018.60 1018.68 1018.68 1018.64 1018.64 1018.64 1018.80 1019.00 1019.16 1019.20 1019.24 1019.20 1019.24 1019.28 1019.44 1019.52 1019.72 1019.84 1019.92 1020.04 1020.08 1020.24 1020.32 1020.40 1020.44 1020.52 1020.56 1020.72 1020.80 1021.04 1021.04 1021.12 1021.04 1021.16 1021.40 1021.56 1021.40 1021.44 1021.36 1021.40 1021.52 1021.60
1018.64 1018.64 1018.72 1018.76 1018.72 1018.80 1018.92 1018.96 1018.92 1019.00 1019.04 1019.12 1019.08 1019.00 1019.16 1019.24 1019.48 1019.64 1019.76 1019.96 1020.00 1020.08 1020.24 1020.28 1020.44 1020.44 1020.48 1020.64 1020.80 1020.92 1021.00 1021.16 1021.04 1021.16 1021.40 1021.52 1021.44 1021.28 1021.28 1021.32 1021.48 1021.60
1018.84 1018.84 1018.92 1018.84 1018.88 1018.80 1018.92 1018.88 1018.80 1018.72 1018.76 1018.68 1018.72 1018.96 1018.88 1019.12 1019.28 1019.36 1019.48 1019.64 1019.80 1019.96 1020.08 1020.24 1020.36 1020.48 1020.44 1020.60 1020.80 1020.96 1020.96 1021.00 1021.00 1021.16 1021.40 1021.40 1021.36 1021.40 1021.20 1021.24 1021.36 1021.44
1018.72 1018.80 1018.92 1018.96 1019.04 1019.00 1019.00 1018.92 1018.84 1018.72 1018.56 1018.56 1018.76 1018.64 1018.60 1018.84 1018.96 1019.04 1019.16 1019.36 1019.60 1019.80 1019.92 1020.04 1020.16 1020.28 1020.36 1020.52 1020.80 1020.96 1021.00 1020.92 1021.04 1021.16 1021.32 1021.36 1021.32 1021.44 1021.24 1021.16 1021.20 1021.36
1018.56 1018.88 1019.04 1019.16 1019.20 1019.12 1019.04 1018.88 1018.72 1018.64 1018.44 1018.56 1018.56 1018.48 1018.44 1018.48 1018.64 1018.76 1018.96 1019.12 1019.36 1019.56 1019.76 1019.96 1020.04 1020.16 1020.20 1020.40 1020.64 1020.80 1020.92 1020.92 1020.84 1021.00 1021.16 1021.32 1021.36 1021.28 1021.16 1021.04 1021.20 1021.24
1018.76 1018.76 1019.08 1019.24 1019.36 1019.12 1019.08 1018.80 1018.60 1018.48 1018.36 1018.40 1018.36 1018.28 1018.48 1018.40 1018.36 1018.48 1018.72 1019.00 1019.24 1019.44 1019.60 1019.76 1019.92 1020.04 1020.16 1020.24 1020.36 1020.48 1020.64 1020.76 1020.72 1020.76 1020.84 1020.92 1021.00 1021.00 1020.96 1020.96 1021.04 1021.16
1019.24 1019.16 1018.96 1019.12 1019.12 1019.00 1018.92 1018.72 1018.52 1018.32 1018.24 1018.28 1018.24 1018.32 1018.24 1018.32 1018.40 1018.32 1018.52 1018.76 1019.00 1019.16 1019.32 1019.44 1019.60 1019.72 1019.96 1020.08 1020.08 1020.08 1020.24 1020.36 1020.44 1020.52 1020.56 1020.60 1020.60 1020.60 1020.56 1020.68 1020.72 1020.84
1018.56 1019.40 1019.52 1018.92 1018.84 1018.80 1018.72 1018.60 1018.44 1018.32 1018.20 1018.08 1018.00 1018.20 1018.20 1018.16 1018.32 1018.36 1018.32 1018.48 1018.52 1018.64 1018.80 1018.96 1019.08 1019.28 1019.48 1019.64 1019.76 1019.80 1019.92 1020.00 1020.04 1020.16 1020.20 1020.24 1020.28 1020.28 1020.28 1020.28 1020.40 1020.40
1018.48 1018.48 1019.08 1019.24 1018.72 1018.52 1018.48 1018.40 1018.36 1018.20 1018.00 1018.00 1017.84 1017.88 1018.00 1018.16 1018.12 1018.20 1018.08 1018.12 1018.20 1018.24 1018.44 1018.56 1018.76 1018.88 1019.08 1019.20 1019.28 1019.36 1019.52 1019.72 1019.84 1019.88 1019.92 1020.00 1019.96 1019.92 1019.92 1019.92 1019.92 1019.96
1018.48 1018.16 1018.36 1018.60 1018.56 1018.52 1018.36 1018.12 1018.04 1017.96 1017.88 1017.72 1017.56 1017.72 1017.80 1017.80 1017.84 1017.92 1017.88 1017.92 1018.00 1018.04 1018.04 1018.12 1018.36 1018.60 1018.72 1018.76 1018.84 1018.96 1019.16 1019.32 1019.44 1019.60 1019.72 1019.76 1019.76 1019.72 1019.64 1019.64 1019.64 1019.60
1018.36 1018.52 1018.52 1018.56 1018.48 1018.44 1018.44 1018.20 1017.92 1017.76 1017.72 1017.60 1017.48 1017.44 1017.44 1017.48 1017.52 1017.60 1017.84 1018.00 1017.88 1017.92 1017.96 1018.00 1018.24 1018.40 1018.40 1018.52 1018.68 1018.76 1018.76 1019.00 1019.12 1019.28 1019.40 1019.56 1019.60 1019.60 1019.52 1019.48 1019.44 1019.36
1018.40 1018.40 1018.28 1018.16 1018.20 1018.24 1018.08 1017.88 1017.76 1017.72 1017.72 1017.64 1017.40 1017.24 1017.20 1017.20 1017.24 1017.28 1017.44 1017.76 1018.04 1018.04 1017.96 1017.96 1018.00 1018.00 1018.00 1018.08 1018.16 1018.40 1018.60 1018.64 1018.80 1018.92 1019.04 1019.20 1019.40 1019.48 1019.44 1019.32 1019.28 1019.20
1018.52 1018.96 1018.44 1018.24 1018.12 1018.24 1018.36 1018.08 1017.84 1017.80 1017.80 1017.80 1017.76 1017.68 1017.44 1017.16 1017.16 1017.40 1017.36 1017.36 1017.52 1017.76 1017.96 1017.96 1017.80 1017.64 1017.64 1017.84 1018.00 1018.00 1018.12 1018.40 1018.60 1018.72 1018.72 1018.88 1019.04 1019.24 1019.36 1019.20 1019.04 1018.92
1018.68 1019.20 1018.96 1018.32 1018.08 1018.16 1018.32 1018.32 1018.08 1017.80 1017.72 1017.72 1017.72 1017.72 1017.68 1017.60 1017.60 1017.48 1017.36 1017.28 1017.28 1017.40 1017.60 1017.68 1017.64 1017.36 1017.40 1017.56 1017.72 1017.80 1017.88 1018.00 1018.16 1018.36 1018.48 1018.64 1018.72 1018.84 1018.92 1018.96 1018.96 1018.88
1018.92 1019.16 1018.84 1018.44 1018.12 1017.92 1018.12 1018.68 1018.84 1018.64 1018.16 1017.84 1017.76 1017.68 1017.68 1017.80 1017.76 1017.68 1017.72 1017.60 1017.44 1017.44 1017.44 1017.36 1017.36 1017.20 1017.32 1017.40 1017.48 1017.52 1017.60 1017.76 1017.88 1018.00 1018.20 1018.32 1018.36 1018.44 1018.52 1018.60 1018.72 1018.80
1018.92 1019.00 1019.00 1018.72 1018.28 1017.96 1017.96 1018.52 1019.00 1018.84 1018.20 1017.84 1017.76 1017.80 1017.92 1017.92 1017.80 1017.80 1017.72 1017.76 1017.64 1017.52 1017.40 1017.28 1017.20 1016.92 1016.96 1017.08 1017.28 1017.44 1017.52 1017.80 1017.76 1017.76 1017.88 1017.92 1018.00 1018.04 1018.12 1018.20 1018.28 1018.44
1018.96 1019.00 1019.00 1018.76 1018.48 1018.24 1018.00 1018.04 1018.48 1018.52 1018.32 1018.08 1017.96 1018.00 1018.00 1018.08 1018.04 1017.96 1017.84 1017.76 1017.72 1017.60 1017.60 1017.52 1017.32 1017.12 1016.96 1016.76 1016.76 1016.96 1017.24 1017.72 1017.76 1017.60 1017.60 1017.68 1017.64 1017.64 1017.68 1017.76 1017.80 1017.88
1018.80 1018.92 1018.96 1018.88 1018.68 1018.48 1018.28 1018.28 1018.56 1018.80 1018.72 1018.40 1018.24 1018.16 1018.04 1017.96 1017.96 1017.88 1017.88 1017.84 1017.68 1017.64 1017.68 1017.72 1017.40 1017.32 1017.36 1017.16 1017.00 1016.96 1017.16 1017.64 1017.80 1017.88 1017.76 1017.56 1017.44 1017.36 1017.32 1017.28 1017.36 1017.52
1018.80 1018.80 1018.88 1018.92 1018.80 1018.56 1018.40 1018.40 1018.68 1018.92 1018.76 1018.44 1018.52 1018.48 1018.40 1018.36 1018.32 1018.24 1018.04 1017.96 1017.80 1017.60 1017.64 1017.68 1017.56 1017.24 1017.16 1017.16 1017.12 1017.16 1017.28 1017.48 1017.72 1017.88 1017.92 1017.84 1017.52 1017.20 1017.04 1017.00 1016.96 1017.00
1018.88 1018.72 1018.68 1018.72 1018.72 1018.72 1018.80 1018.96 1018.96 1018.88 1018.80 1018.64 1018.64 1018.64 1018.52 1018.48 1018.36 1018.28 1018.16 1018.00 1017.84 1017.68 1017.44 1017.56 1017.48 1017.24 1017.20 1017.12 1017.00 1017.00 1016.96 1017.08 1017.24 1017.52 1017.60 1017.60 1017.36 1017.08 1016.96 1016.84 1016.72 1016.64
1019.00 1018.88 1018.84 1018.76 1018.80 1018.76 1018.76 1018.88 1018.88 1018.84 1018.72 1018.64 1018.64 1018.64 1018.60 1018.48 1018.36 1018.40 1018.28 1018.00 1017.76 1017.56 1017.28 1017.32 1017.32 1017.16 1017.08 1017.12 1017.00 1016.84 1016.76 1016.68 1016.80 1016.96 1017.16 1017.16 1017.12 1017.00 1016.68 1016.60 1016.48 1016.36
1019.12 1019.08 1019.04 1018.96 1018.88 1018.76 1018.68 1018.76 1018.68 1018.72 1018.68 1018.64 1018.60 1018.56 1018.56 1018.48 1018.36 1018.36 1018.36 1018.16 1017.80 1017.56 1017.40 1017.24 1017.24 1017.08 1017.00 1017.24 1017.28 1017.20 1017.04 1016.84 1016.80 1017.00 1017.08 1017.00 1016.92 1016.92 1016.88 1016.60 1016.36 1016.20
Wind_Speed
5 6 7 6 6 6 7 7 6 7 7 6 7 6 7 6 5 5 5 5 5 5 5 5 4 4 4 3 3 3 3 4 3 3 3 3 3 3 4 4 4 3
6 6 6 6 6 5 7 8 7 7 7 7 7 6 6 5 6 6 5 6 5 5 5 5 4 4 4 3 3 4 4 4 5 3 3 4 4 4 4 4 4 3
6 5 7 7 7 7 8 7 7 7 7 7 6 6 6 6 6 6 6 6 6 5 4 4 4 4 4 4 4 3 5 4 5 4 3 4 5 4 4 4 3 4
7 6 6 7 7 8 7 7 6 6 6 7 7 7 7 6 7 7 6 7 6 6 5 4 5 4 4 4 4 4 4 4 5 3 4 4 4 4 5 4 3 4
8 6 5 6 6 7 7 7 8 7 7 8 7 7 7 6 7 7 7 7 6 6 5 5 5 5 4 4 4 5 4 5 4 3 4 4 5 4 5 4 4 5
5 5 5 5 6 7 7 8 8 8 8 7 8 7 7 7 7 7 7 8 7 7 6 6 6 6 5 5 4 5 5 5 4 3 4 4 5 5 4 4 4 4
7 5 6 5 5 6 7 7 7 8 8 8 6 7 7 8 8 8 8 8 8 7 7 6 6 6 5 5 5 5 5 5 4 4 4 5 4 5 5 4 4 4
7 5 6 5 6 6 6 6 6 7 8 7 8 7 7 8 8 8 8 8 8 8 7 7 7 7 6 5 6 6 6 5 5 5 5 5 4 4 5 5 4 4
6 6 5 6 7 6 7 7 7 6 7 8 8 7 7 8 8 8 8 8 8 8 8 7 7 7 6 6 7 7 7 6 5 5 6 6 5 6 6 4 4 4
3 6 7 7 7 7 8 8 8 7 7 8 8 7 8 7 8 8 8 8 8 8 8 7 7 7 7 7 8 8 7 7 6 5 6 7 7 7 6 6 6 5
9 7 8 9 10 8 9 8 7 8 7 8 8 7 7 7 6 7 9 9 9 9 8 8 8 8 8 8 7 7 8 8 7 6 7 7 8 7 7 7 7 7
7 8 10 9 8 8 7 4 3 4 7 7 8 8 7 7 8 7 8 10 10 10 10 9 8 8 9 9 9 8 8 8 8 7 8 8 7 7 7 7 7 8
7 8 5 7 3 6 5 3 2 1 2 4 5 7 8 8 8 9 8 10 10 10 10 10 9 9 9 9 9 9 10 9 9 8 7 7 7 8 8 8 8 8
6 6 7 6 3 2 3 4 4 3 3 1 2 4 6 8 9 10 10 9 10 10 10 9 9 9 9 9 9 10 10 10 9 9 9 8 7 7 8 8 9 8
6 5 5 3 5 4 3 3 3 3 3 3 3 3 4 3 2 4 5 7 8 9 9 8 8 8 8 8 9 9 9 9 9 9 9 8 8 7 7 8 8 8
2 4 4 3 3 4 5 4 3 2 2 2 3 5 5 4 4 4 5 7 7 7 7 8 8 7 9 14 12 9 8 8 7 8 8 8 8 8 8 7 8 8
2 3 3 4 3 1 2 2 3 1 0 1 3 4 2 3 4 4 4 4 7 8 8 8 8 8 14 14 15 16 10 8 8 8 7 7 7 7 8 8 8 8
3 1 1 1 2 2 2 2 1 1 2 0 2 2 3 4 3 3 4 4 4 4 6 8 8 10 14 15 16 16 14 10 8 8 7 7 7 7 7 7 8 8
4 2 3 3 3 4 4 4 4 4 1 1 0 0 2 4 3 3 3 3 3 3 4 6 7 11 12 14 15 17 17 14 8 8 8 8 8 8 8 8 7 7
3 3 3 4 4 4 5 4 2 3 3 2 2 1 2 2 3 4 4 3 3 3 3 3 4 9 13 13 14 15 15 12 9 8 8 8 8 8 8 8 8 8
2 2 2 2 3 4 5 5 4 5 5 4 4 4 2 2 3 4 4 3 2 2 3 5 5 6 8 13 14 15 15 11 8 8 8 7 8 8 8 9 8 8
2 2 1 2 3 4 6 6 4 5 5 5 5 5 5 4 3 2 3 4 2 2 2 3 5 9 6 5 7 11 10 6 6 7 8 8 8 8 8 8 8 8
2 1 1 2 2 3 4 3 2 2 2 2 4 4 5 5 5 4 4 4 4 3 3 2 3 7 8 6 3 1 4 4 4 5 6 8 9 7 7 7 8 8
5 4 3 1 2 2 2 0 0 1 2 2 2 2 3 3 4 4 4 4 4 5 4 4 3 4 8 10 9 5 7 5 5 6 7 7 9 9 8 7 7 12
6 5 5 2 0 0 0 1 1 1 1 1 1 2 2 2 2 3 4 4 4 4 8 6 4 3 8 11 11 11 8 5 6 6 6 7 7 8 7 7 8 9
5 6 5 4 2 2 2 2 2 2 2 2 2 2 4 4 3 3 5 5 5 5 5 5 5 5 1 1 7 10 10 5 3 4 6 6 6 6 6 6 7 7
Wind_Direction
178 177 175 177 179 172 169 170 173 171 180 177 180 187 182 194 189 183 193 196 197 201 207 207 204 202 212 203 204 194 195 215 219 213 212 218 262 281 294 298 310 279
188 181 180 175 179 176 174 173 173 174 179 181 185 183 190 182 194 186 190 199 200 203 199 202 201 199 206 196 189 184 204 207 220 215 217 225 241 262 274 274 272 293
187 188 184 179 181 183 181 179 174 177 177 186 181 181 188 187 190 192 191 195 198 200 197 201 201 198 196 196 182 186 193 201 212 224 210 227 234 239 251 264 279 280
201 192 189 186 183 185 182 177 180 181 181 185 192 189 187 191 188 190 192 194 194 198 198 196 201 199 195 195 183 196 199 204 209 197 207 231 240 232 245 252 269 286
203 200 193 188 189 186 184 183 185 186 190 194 197 193 191 187 188 191 190 195 192 197 195 197 199 202 198 194 190 202 206 216 219 188 197 222 237 229 242 239 260 275
209 209 200 193 190 187 189 194 193 188 194 194 199 194 197 188 187 190 191 192 194 195 197 195 195 204 195 198 196 204 206 213 228 201 208 220 239 231 240 233 236 255
200 204 211 204 198 196 191 199 199 197 196 200 191 197 194 190 189 193 190 192 192 193 196 195 196 199 199 195 199 211 214 212 224 215 215 226 228 239 237 242 241 251
197 200 207 208 207 207 208 201 204 202 201 199 195 200 188 189 188 189 190 190 191 193 197 198 196 195 196 191 202 211 219 214 222 224 220 224 213 225 233 234 240 242
190 203 205 211 209 213 216 218 212 208 205 200 204 201 198 192 191 187 186 188 191 191 193 198 197 200 198 194 201 206 212 217 215 213 220 225 219 224 226 226 234 239
246 202 212 215 219 215 216 218 218 214 207 206 206 203 198 205 195 191 185 185 188 189 189 190 194 200 202 201 202 204 211 216 215 212 216 219 218 219 221 223 227 233
3 296 217 217 220 220 219 216 217 215 208 208 203 207 205 195 202 194 189 190 194 195 198 196 192 194 200 206 209 207 212 216 215 212 216 219 220 218 216 216 225 226
85 12 311 230 219 227 224 218 217 222 221 214 201 203 207 202 197 199 194 195 199 199 198 201 199 195 197 202 205 207 210 216 217 215 217 219 222 223 221 216 221 226
132 150 240 289 218 179 170 160 141 136 148 204 219 212 197 203 207 204 205 198 201 200 199 200 201 200 200 202 204 205 206 211 218 219 220 221 222 221 222 221 221 223
192 190 188 189 224 240 187 169 172 178 176 158 146 201 222 209 203 204 207 207 206 204 205 201 200 201 202 203 204 203 204 209 213 216 220 223 226 225 223 223 224 226
169 182 207 209 176 174 198 198 184 189 200 176 144 148 165 175 180 204 214 221 218 212 210 207 203 206 203 202 205 208 204 207 209 213 216 221 226 229 229 229 230 231
137 171 187 181 173 200 194 191 201 207 228 226 190 175 174 177 167 165 178 198 219 229 224 214 212 211 213 207 202 201 206 209 206 210 213 215 219 227 232 229 232 232
53 290 190 162 163 145 284 239 209 216 25 338 329 316 278 212 172 171 179 181 195 209 220 223 221 217 215 211 211 210 204 206 206 211 210 214 217 220 229 232 234 236
68 296 306 105 139 185 224 289 326 143 149 222 309 323 319 333 304 240 206 204 195 200 212 221 227 227 217 213 215 217 216 214 215 217 214 215 219 221 229 231 234 236
44 11 7 22 34 51 63 37 338 311 325 127 199 273 352 335 310 308 298 287 259 219 223 220 223 230 227 222 220 219 220 219 222 222 224 226 223 226 227 229 229 235
59 40 23 11 11 44 56 61 354 334 347 28 34 26 349 322 328 324 313 289 269 274 277 277 243 228 215 218 224 228 227 219 230 226 229 232 232 230 232 233 230 229
93 79 41 24 34 23 47 49 11 352 3 359 7 5 358 336 318 326 326 328 330 319 315 307 303 314 252 220 214 216 225 220 234 239 235 235 238 236 235 235 234 233
82 82 55 44 51 59 52 44 26 5 6 4 12 13 11 1 344 328 324 324 319 330 331 308 309 319 315 308 245 234 223 205 225 242 245 246 240 237 238 237 236 235
356 34 51 59 67 66 63 60 34 342 336 4 18 10 12 8 360 356 348 345 341 343 339 313 290 296 290 286 283 181 162 204 213 227 245 252 254 248 244 242 242 237
9 8 352 351 38 73 94 100 264 270 314 348 59 21 14 5 351 355 357 351 351 357 346 329 305 251 250 269 274 205 185 184 192 205 227 236 245 251 252 256 251 249
5 11 7 339 357 356 280 298 292 296 289 316 344 9 350 346 4 0 351 352 355 349 352 351 322 280 223 228 239 234 214 209 195 199 217 225 227 240 241 243 252 254
10 7 6 2 311 288 296 261 259 288 294 305 328 358 353 353 357 1 354 348 345 352 346 334 319 309 32 132 241 252 236 245 250 231 241 241 234 239 244 246 245 251